Temperature
8 9 9 10 10 10 10 10 10 10 10 10 10 10 10 11 11 11 11 11 11 11 11 11 11 11 11 11 11 11 11 11 11 11 11 11 11 11 11 11 11 11 11
8 8 9 9 9 10 10 10 10 10 10 10 10 10 10 10 10 10 10 10 10 11 11 11 11 11 11 11 11 11 11 11 10 10 10 10 10 10 10 10 11 11 10
7 7 8 8 9 9 9 9 9 9 9 10 10 10 10 10 10 10 10 10 10 10 10 10 10 10 10 10 10 10 10 10 10 10 10 10 10 10 10 10 10 10 10
6 7 7 8 8 9 9 9 9 9 9 9 9 9 9 9 10 10 10 10 10 10 10 10 10 10 10 10 10 10 10 10 10 10 10 10 10 10 9 9 10 10 10
6 6 7 7 8 8 9 9 9 9 9 9 9 9 9 9 9 9 9 9 9 9 9 10 10 10 10 10 10 10 10 10 10 10 10 9 9 9 9 9 9 9 9
5 6 6 7 7 8 8 8 8 8 8 8 8 8 9 9 9 9 9 9 9 9 9 9 9 9 10 10 10 9 9 9 9 9 9 9 9 9 9 9 9 9 9
4 5 5 6 7 7 7 8 8 8 8 8 8 8 8 8 9 9 9 9 9 9 9 9 9 9 9 9 9 9 9 9 9 9 9 9 9 9 9 9 8 8 8
2 3 4 5 6 6 7 7 7 8 8 8 8 8 8 8 8 8 8 9 9 9 9 9 9 9 9 9 9 9 9 8 8 8 8 8 8 8 8 8 8 8 8
1 2 3 4 5 6 6 7 7 7 7 8 8 8 8 8 8 8 8 8 8 8 8 8 8 8 8 8 8 8 8 8 8 8 8 8 8 8 8 8 8 8 7
0 1 2 3 4 5 5 6 6 6 7 7 7 7 7 7 7 7 7 8 8 8 8 8 8 8 8 8 8 7 7 7 7 7 7 7 7 7 7 7 7 7 7
-1 -0 1 2 3 4 5 5 6 6 6 6 7 7 7 7 7 7 7 7 7 7 7 7 7 7 7 7 7 7 7 7 7 7 7 7 7 7 7 7 7 7 7
-2 -1 -0 1 2 3 3 4 5 5 6 6 6 6 6 6 6 6 7 7 7 7 7 7 7 7 7 7 7 7 7 7 6 6 6 6 6 6 6 7 7 7 6
-2 -2 -1 -0 0 1 2 3 3 4 5 5 5 5 6 6 6 6 6 6 6 6 6 6 6 6 6 6 6 6 6 6 6 6 6 6 6 6 6 6 6 6 6
-3 -3 -2 -2 -1 -0 1 1 2 3 4 4 4 5 5 5 5 5 6 6 6 6 6 6 6 6 6 6 6 6 6 6 6 6 5 5 5 6 6 6 6 5 5
-4 -4 -3 -3 -2 -1 -0 0 1 2 3 3 4 4 4 4 4 5 5 5 5 5 5 5 5 5 5 5 5 5 5 5 5 5 5 5 5 5 5 5 5 5 5
-5 -4 -4 -3 -3 -2 -1 -0 0 1 2 2 3 3 3 3 4 4 4 4 4 4 4 4 4 4 5 5 5 5 5 5 5 5 5 5 5 5 5 4 4 4 4
-5 -5 -4 -4 -3 -2 -2 -1 -0 0 1 1 2 2 2 2 3 3 3 3 3 4 4 4 4 4 4 4 4 4 4 4 4 4 4 4 4 4 4 4 4 4 4
-5 -5 -5 -4 -3 -3 -2 -1 -1 -0 0 0 1 1 1 2 2 2 2 2 3 3 3 3 3 3 4 4 4 4 4 4 4 4 4 4 4 4 4 4 3 3 3
-5 -5 -5 -4 -3 -3 -2 -2 -2 -1 -1 -0 -0 0 0 1 1 1 1 2 2 2 2 2 3 3 3 3 3 3 3 3 3 3 3 3 3 3 3 3 3 3 3
-5 -5 -5 -4 -4 -3 -3 -3 -2 -2 -1 -1 -1 -1 -0 -0 0 0 1 1 1 1 1 1 2 2 2 2 2 2 2 2 2 2 2 2 2 2 2 2 2 2 2
-6 -5 -5 -5 -4 -4 -3 -3 -3 -3 -2 -2 -1 -1 -1 -1 -0 -0 0 0 1 1 1 1 1 1 1 1 1 2 2 2 2 2 2 2 2 1 1 1 2 2 2
-6 -6 -5 -5 -5 -4 -4 -4 -3 -3 -3 -2 -2 -2 -1 -1 -1 -1 -0 -0 -0 0 0 0 0 0 0 1 1 1 1 1 1 1 1 1 1 1 1 1 1 1 1
-7 -6 -6 -5 -5 -5 -4 -4 -4 -3 -3 -3 -2 -2 -2 -2 -1 -1 -1 -1 -1 -1 -0 -0 -0 -0 -0 -0 0 0 0 0 0 0 0 0 0 0 0 0 0 0 0
-7 -7 -6 -6 -6 -5 -5 -5 -4 -4 -3 -3 -3 -3 -2 -2 -2 -2 -2 -2 -1 -1 -1 -1 -1 -1 -1 -1 -0 -0 -0 -0 -0 -0 -1 -1 -1 -0 -0 -0 -0 -0 -0
-7 -7 -7 -7 -6 -6 -5 -5 -5 -4 -4 -4 -3 -3 -3 -3 -2 -2 -2 -2 -2 -2 -2 -1 -1 -1 -1 -1 -1 -1 -1 -1 -1 -1 -1 -1 -1 -1 -1 -1 -1 -1 -1
-8 -7 -7 -7 -7 -6 -6 -6 -5 -5 -5 -4 -4 -4 -3 -3 -3 -3 -3 -3 -3 -2 -2 -2 -2 -2 -2 -2 -2 -2 -2 -2 -2 -2 -2 -2 -2 -2 -2 -2 -2 -2 -2
Wind_Speed
2 1 2 2 3 4 5 6 6 6 6 5 4 4 3 2 2 3 4 6 6 7 7 5 5 6 4 4 5 4 4 3 2 3 2 2 2 3 3 3 3 3 3
0 1 1 2 3 4 4 5 6 6 6 5 4 3 3 2 2 2 3 5 6 6 6 6 4 5 4 5 5 4 3 2 2 2 2 1 2 2 2 2 2 2 3
3 2 1 1 2 3 4 5 5 5 5 5 4 4 3 3 2 2 2 3 5 6 6 6 6 5 5 5 5 5 5 3 1 1 3 3 2 0 2 3 2 2 2
2 1 1 1 2 3 3 4 5 5 6 6 6 7 5 4 3 3 2 2 4 5 6 6 6 5 4 5 5 4 3 5 3 1 2 2 3 2 0 2 2 2 2
2 2 2 3 2 2 3 4 5 5 5 6 7 7 5 4 3 3 4 3 2 4 5 6 5 5 4 4 5 4 4 4 4 3 2 2 2 2 2 1 2 2 2
2 2 1 1 2 1 2 3 4 5 5 6 6 7 7 6 6 4 4 3 2 2 3 5 5 5 4 5 5 5 5 4 4 3 3 3 3 2 2 2 1 1 1
1 2 1 1 0 1 1 2 4 4 4 5 6 6 6 7 7 6 5 4 3 2 4 3 4 4 4 5 5 4 4 5 5 4 3 3 2 3 3 3 2 1 1
2 2 2 1 1 1 2 3 3 3 4 4 5 4 5 5 4 5 4 5 4 4 4 4 4 4 5 5 5 4 4 4 4 4 4 3 2 3 3 3 3 1 1
3 3 3 2 2 1 1 3 3 3 3 3 3 3 4 4 4 4 4 4 3 3 4 4 4 4 4 4 4 3 4 4 4 4 4 3 2 2 2 3 3 4 2
5 5 4 3 3 1 0 1 2 2 2 3 3 2 3 3 3 4 4 4 4 3 4 4 4 4 4 4 4 3 3 4 4 3 4 3 3 2 2 2 2 2 3
6 5 4 4 3 3 2 1 1 1 1 2 2 2 2 3 3 3 3 3 3 4 4 4 5 5 4 4 4 4 4 5 4 4 4 4 4 3 3 2 2 2 2
6 5 5 5 5 5 4 2 1 1 0 1 1 2 2 3 3 3 3 3 3 3 4 4 5 5 5 5 5 5 5 5 5 5 4 4 3 4 3 3 3 3 2
7 7 7 6 6 5 4 3 3 2 1 1 1 1 1 2 3 3 3 3 3 3 3 4 4 5 5 5 5 5 5 5 5 5 5 4 4 4 3 3 3 3 2
7 7 7 7 6 5 5 4 4 3 2 1 1 1 1 2 2 2 2 3 3 3 3 4 4 4 4 4 4 5 4 4 3 3 4 4 5 5 5 4 4 3 3
9 8 7 7 7 6 6 5 5 4 2 1 1 0 1 1 1 2 2 2 3 3 3 3 3 3 4 4 5 5 5 5 3 3 3 3 4 4 4 3 4 4 3
9 8 8 8 8 7 7 6 5 4 2 1 1 1 1 0 1 2 2 2 2 2 3 4 4 4 3 5 7 6 5 5 5 4 3 3 3 4 4 5 5 5 4
9 8 8 8 7 7 7 6 5 4 2 2 1 1 0 0 1 1 2 2 2 2 3 3 4 4 4 6 7 7 5 5 4 4 4 3 3 4 4 4 4 3 3
9 8 8 8 7 7 6 6 5 4 3 2 2 1 1 0 1 1 2 2 2 3 3 3 4 4 4 6 7 7 5 4 4 4 4 5 4 4 5 5 4 2 1
7 7 7 6 6 6 6 5 5 4 4 3 3 2 1 0 1 1 1 2 2 2 3 3 4 4 3 5 6 6 5 4 4 3 4 5 4 6 7 6 5 3 1
7 6 6 6 6 6 6 5 5 4 4 4 3 2 1 0 1 1 1 1 2 3 3 3 3 4 4 5 5 6 4 5 4 3 3 5 5 6 7 5 5 4 2
7 6 6 6 6 6 6 5 5 5 5 4 3 2 2 1 0 1 1 2 2 3 3 4 3 3 3 4 5 5 4 5 5 4 3 3 6 6 6 5 4 5 4
8 7 7 7 7 6 6 6 6 6 5 4 3 2 2 1 1 2 2 2 3 4 4 4 3 2 2 3 4 4 4 4 4 4 3 4 6 5 5 4 5 5 4
7 7 7 7 7 7 6 5 6 6 5 4 3 2 2 2 1 2 2 2 3 3 3 3 3 2 2 2 4 4 4 4 3 3 5 5 5 4 3 4 5 4 3
7 6 6 7 8 8 7 6 6 6 5 4 3 2 2 2 2 1 2 2 2 2 3 3 3 2 2 1 2 2 3 4 3 4 5 5 5 3 3 3 2 2 3
7 6 6 6 8 8 7 7 6 6 5 4 3 2 2 2 2 2 1 1 1 2 3 3 3 3 2 2 3 3 3 3 4 4 3 2 2 2 2 1 1 2 2
6 7 7 7 8 7 7 7 6 5 4 4 3 2 2 1 1 2 3 4 2 2 2 2 2 2 2 4 4 4 4 5 7 4 3 3 3 3 2 2 1 1 1
Wind_Direction
232 133 128 133 132 139 148 154 153 156 152 153 157 157 164 161 143 132 147 151 152 155 151 148 150 148 145 148 141 124 117 104 105 98 67 33 43 54 48 50 61 65 73
340 77 110 128 145 153 160 158 162 161 160 162 163 157 151 149 137 118 137 152 152 155 156 152 156 155 145 142 144 134 127 117 120 126 120 73 11 18 33 45 58 53 67
224 218 162 162 153 166 175 174 172 165 161 150 136 118 99 91 107 135 155 157 162 162 160 163 155 154 154 161 162 155 147 152 139 103 136 151 199 301 11 30 34 32 52
233 220 180 169 187 199 188 177 171 165 161 152 152 151 153 156 176 169 162 139 157 160 162 161 161 159 157 164 168 162 155 151 160 122 77 103 133 142 34 356 14 27 31
224 218 210 206 206 201 189 182 166 162 162 162 163 162 156 158 143 133 144 151 144 158 163 159 157 159 159 162 161 160 158 159 161 157 140 113 82 102 152 226 322 359 359
265 246 235 196 202 189 178 172 163 166 166 168 168 168 163 154 143 146 160 164 158 157 164 161 157 160 160 164 168 167 167 170 161 155 151 149 152 168 162 189 219 265 313
358 348 340 311 207 165 177 168 166 169 170 173 175 177 174 167 165 168 173 169 170 182 187 161 163 164 168 169 165 165 174 174 169 172 176 174 169 155 153 156 177 214 289
7 358 330 310 267 192 175 171 172 171 170 175 182 179 172 171 175 174 173 179 185 187 177 168 165 165 167 167 163 167 177 169 177 178 177 175 175 164 161 160 158 174 270
355 359 355 345 329 245 183 183 180 169 172 177 171 171 170 171 172 171 168 174 174 164 159 163 162 161 164 164 160 174 182 176 180 182 181 182 180 172 173 163 166 169 203
359 3 0 353 348 331 181 163 171 175 169 169 172 179 178 174 168 162 169 174 173 158 160 165 163 162 164 165 165 172 182 179 185 180 177 185 182 179 174 173 173 175 186
358 359 358 1 9 18 28 50 97 110 134 161 165 163 171 166 158 164 177 178 174 166 170 173 173 175 173 170 176 184 176 183 189 183 185 196 182 181 183 172 166 172 170
2 6 7 12 16 19 16 17 20 40 92 157 153 167 166 158 164 176 184 175 180 179 178 172 178 180 178 177 181 187 184 187 192 194 191 201 187 189 187 180 183 184 178
6 11 15 15 11 7 3 2 2 0 9 56 111 129 161 172 184 187 180 175 180 185 178 174 184 185 182 179 185 187 186 190 194 192 192 196 186 196 192 185 182 177 166
5 11 11 5 1 359 357 355 355 356 7 39 93 140 200 201 196 183 176 182 182 185 188 186 191 192 184 182 181 179 178 178 181 183 187 189 190 197 193 186 179 164 152
2 4 2 358 357 358 357 356 355 355 2 24 40 294 296 232 178 175 176 183 186 192 187 181 185 185 182 184 175 172 169 164 159 158 164 171 174 179 178 174 169 162 157
354 356 358 357 354 351 348 348 347 347 359 5 350 355 5 159 182 180 170 169 181 184 171 177 178 184 192 180 179 171 164 161 160 158 155 148 149 150 150 151 152 158 165
348 351 351 347 344 340 338 337 335 340 356 358 2 17 48 172 189 173 155 170 181 172 170 172 170 175 175 173 175 173 159 155 160 161 155 148 136 128 126 123 124 125 147
343 343 343 341 339 338 339 338 342 351 360 356 355 4 11 203 148 147 162 171 158 154 156 157 154 150 158 162 162 163 147 142 148 157 160 157 154 147 138 127 115 110 107
331 332 333 333 335 341 343 345 350 355 1 356 346 338 344 126 145 149 157 157 144 142 140 141 141 141 143 149 148 149 138 138 142 145 147 151 152 155 147 138 134 122 106
336 339 339 344 345 346 347 352 349 352 345 337 333 333 339 339 175 178 165 143 144 144 131 123 130 139 139 144 145 144 141 143 139 130 141 160 165 163 160 156 155 162 173
339 346 346 350 347 346 352 355 352 342 330 329 333 343 354 336 182 141 128 127 131 126 124 120 116 123 133 142 147 150 151 156 151 154 158 165 166 167 168 168 171 180 165
346 351 351 348 348 353 357 352 346 338 338 341 347 358 9 8 54 108 112 119 128 127 125 121 112 105 115 124 137 141 146 152 152 159 159 161 161 163 166 167 162 161 151
343 349 349 346 349 354 358 351 339 339 347 357 2 11 17 23 49 103 120 119 122 133 138 136 131 119 105 118 130 138 140 139 139 144 152 152 151 144 143 153 157 154 148
343 347 350 350 347 350 352 346 337 343 356 3 2 16 35 37 47 79 114 130 143 145 145 147 144 135 122 118 131 139 143 143 138 135 139 135 126 118 124 129 139 152 163
341 346 347 345 343 345 347 346 345 350 358 3 6 17 32 52 61 64 70 119 145 168 163 168 169 166 172 185 167 154 152 151 149 135 123 120 124 122 118 120 132 141 147
342 346 347 344 341 343 343 345 347 353 358 360 2 8 20 46 75 87 58 42 63 82 111 151 160 163 166 160 160 154 151 153 151 138 144 151 153 159 166 170 171 171 178
Height
1478 1479 1481 1484 1486 1489 1492 1495 1498 1502 1505 1507 1510 1513 1516 1519 1522 1525 1528 1531 1533 1536 1538 1541 1543 1545 1548 1550 1552 1554 1557 1559 1561 1563 1565 1567 1568 1569 1570 1572 1573 1574 1574
1475 1477 1479 1481 1484 1486 1489 1492 1496 1499 1502 1505 1508 1512 1515 1517 1520 1523 1526 1529 1531 1534 1536 1539 1541 1543 1545 1548 1550 1552 1554 1557 1559 1561 1563 1565 1567 1567 1568 1570 1571 1572 1573
1473 1475 1477 1479 1481 1484 1487 1490 1493 1496 1499 1503 1506 1509 1512 1515 1518 1520 1524 1527 1529 1532 1534 1537 1539 1541 1543 1545 1548 1550 1552 1554 1557 1559 1561 1562 1563 1565 1566 1567 1568 1569 1570
1471 1473 1475 1477 1479 1482 1485 1488 1491 1494 1497 1500 1503 1505 1508 1510 1514 1518 1521 1524 1527 1529 1532 1534 1536 1538 1541 1543 1545 1548 1550 1552 1554 1556 1558 1560 1561 1563 1564 1565 1566 1567 1568
1469 1471 1473 1475 1477 1480 1483 1486 1488 1491 1494 1497 1500 1503 1506 1509 1512 1515 1519 1522 1524 1527 1529 1532 1533 1535 1538 1540 1543 1545 1547 1549 1551 1553 1555 1557 1559 1560 1561 1562 1564 1565 1566
1467 1469 1471 1473 1475 1477 1480 1482 1485 1488 1491 1494 1497 1500 1503 1506 1509 1512 1515 1518 1521 1524 1526 1529 1531 1533 1535 1537 1540 1542 1544 1546 1548 1550 1552 1554 1555 1557 1559 1560 1561 1562 1563
1464 1466 1467 1469 1471 1474 1476 1479 1482 1485 1488 1491 1494 1497 1501 1503 1506 1509 1512 1515 1518 1520 1523 1525 1528 1530 1532 1534 1537 1539 1541 1543 1545 1547 1549 1551 1553 1554 1556 1557 1558 1559 1560
1463 1464 1465 1467 1468 1471 1473 1476 1479 1482 1485 1488 1492 1495 1498 1501 1504 1507 1509 1512 1514 1517 1520 1522 1524 1526 1528 1531 1533 1535 1537 1539 1541 1543 1545 1547 1549 1551 1553 1554 1555 1556 1557
1462 1462 1463 1465 1466 1468 1470 1473 1476 1479 1482 1485 1489 1492 1495 1498 1501 1504 1507 1509 1512 1514 1517 1519 1521 1523 1525 1527 1529 1531 1533 1536 1537 1540 1542 1544 1546 1547 1549 1551 1552 1554 1553
1461 1461 1462 1463 1464 1466 1468 1470 1473 1476 1479 1482 1485 1488 1491 1494 1497 1500 1503 1506 1508 1511 1513 1515 1517 1519 1521 1523 1525 1527 1530 1532 1533 1536 1538 1540 1542 1544 1545 1547 1548 1550 1550
1462 1461 1461 1462 1463 1464 1466 1468 1470 1473 1476 1479 1482 1485 1488 1491 1494 1496 1499 1502 1504 1507 1509 1511 1513 1515 1517 1519 1521 1523 1526 1528 1530 1532 1533 1535 1538 1539 1541 1542 1544 1545 1547
1463 1461 1461 1461 1461 1462 1463 1465 1468 1470 1472 1475 1479 1482 1485 1487 1490 1492 1495 1498 1500 1502 1505 1507 1509 1511 1513 1515 1517 1519 1521 1523 1525 1527 1529 1531 1533 1535 1537 1538 1540 1541 1543
1463 1462 1461 1460 1460 1461 1462 1464 1466 1467 1470 1472 1475 1478 1481 1483 1486 1489 1491 1494 1496 1498 1501 1503 1505 1507 1509 1511 1513 1515 1517 1519 1521 1523 1525 1527 1529 1531 1532 1534 1536 1537 1538
1464 1463 1461 1461 1461 1461 1462 1462 1464 1466 1467 1470 1472 1475 1477 1480 1482 1485 1487 1490 1492 1494 1497 1499 1501 1503 1505 1507 1509 1511 1513 1515 1517 1519 1521 1523 1525 1526 1528 1530 1531 1533 1534
1465 1463 1462 1461 1461 1461 1461 1461 1462 1464 1465 1467 1469 1472 1474 1476 1478 1481 1483 1485 1488 1490 1492 1494 1497 1499 1501 1503 1505 1507 1509 1511 1513 1515 1517 1519 1521 1522 1524 1526 1527 1529 1530
1467 1465 1463 1462 1461 1460 1460 1461 1461 1462 1463 1465 1467 1469 1471 1473 1475 1477 1479 1481 1483 1485 1488 1490 1492 1495 1497 1499 1502 1503 1505 1507 1509 1511 1513 1515 1517 1519 1520 1522 1523 1525 1526
1468 1465 1463 1462 1461 1461 1460 1460 1460 1461 1462 1463 1464 1466 1467 1469 1471 1473 1475 1477 1479 1481 1483 1486 1488 1491 1493 1496 1498 1500 1502 1504 1506 1508 1509 1511 1513 1515 1516 1518 1519 1520 1522
1468 1466 1464 1462 1461 1460 1460 1460 1459 1459 1460 1461 1462 1463 1464 1466 1468 1470 1472 1474 1476 1477 1480 1482 1485 1487 1489 1492 1494 1496 1498 1500 1502 1504 1506 1507 1509 1511 1512 1514 1515 1516 1518
1468 1466 1464 1462 1461 1460 1459 1458 1458 1458 1458 1458 1459 1461 1462 1463 1465 1467 1468 1471 1472 1474 1476 1479 1481 1483 1485 1488 1490 1492 1494 1496 1498 1500 1502 1504 1505 1507 1509 1510 1511 1513 1514
1467 1465 1463 1460 1459 1458 1457 1457 1456 1456 1456 1457 1458 1459 1460 1461 1462 1464 1466 1468 1469 1471 1473 1475 1478 1480 1482 1484 1486 1489 1490 1492 1494 1496 1498 1500 1502 1504 1505 1507 1508 1510 1511
1465 1463 1461 1459 1458 1457 1456 1455 1455 1455 1455 1455 1456 1457 1457 1459 1460 1461 1463 1465 1467 1468 1470 1472 1475 1477 1479 1481 1483 1485 1487 1489 1490 1492 1494 1496 1498 1500 1502 1504 1505 1507 1508
1464 1462 1460 1458 1457 1456 1455 1454 1453 1453 1453 1453 1454 1454 1455 1456 1457 1459 1460 1462 1464 1465 1467 1469 1471 1474 1476 1478 1480 1482 1484 1486 1487 1489 1491 1493 1495 1497 1499 1501 1502 1504 1505
1463 1461 1459 1457 1456 1455 1454 1453 1452 1452 1451 1451 1451 1452 1453 1454 1455 1456 1457 1459 1461 1462 1464 1466 1468 1470 1473 1475 1477 1479 1481 1482 1484 1486 1488 1490 1492 1493 1495 1497 1498 1500 1501
1462 1460 1458 1456 1455 1454 1453 1452 1451 1450 1450 1449 1450 1450 1451 1452 1453 1454 1455 1457 1458 1460 1462 1464 1465 1467 1469 1472 1473 1475 1477 1479 1481 1482 1484 1487 1488 1490 1491 1493 1495 1496 1497
1462 1460 1458 1456 1454 1453 1452 1451 1450 1449 1448 1448 1448 1449 1449 1450 1451 1452 1454 1455 1457 1459 1460 1461 1463 1464 1466 1468 1471 1472 1474 1476 1477 1479 1481 1483 1484 1486 1487 1489 1490 1492 1493
1462 1459 1458 1456 1454 1453 1451 1450 1449 1449 1448 1447 1447 1447 1448 1449 1450 1450 1452 1453 1455 1457 1458 1459 1461 1462 1464 1466 1468 1470 1471 1473 1475 1476 1477 1479 1480 1482 1483 1485 1486 1488 1489